DW2770 Weather Reports


Display with metric or nautical units.
time (UTC)temp
F
wind
direction
speed
MPH
gust
MPH
rain 1hr
in
rain 24hr
in
rain mn
in
humidity
%
barometer
mb
20201204163058 56 135 4.0 9.0 0.00 0.02 0.00 66 1006.9
20201204162603 56 158 9.0 9.0 0.00 0.02 0.00 66 1006.9
20201204162058 56 158 3.0 7.0 0.00 0.02 0.00 66 1006.8
20201204161559 57 180 3.0 3.0 0.00 0.02 0.00 66 1006.8
20201204161059 57 203 3.0 4.0 0.00 0.02 0.00 66 1006.8
20201204160603 57 135 2.0 8.0 0.00 0.02 0.00 66 1007.0
20201204160127 57 180 3.0 3.0 0.00 0.02 0.00 66 1006.8
20201204155614 58 180 2.0 2.0 0.00 0.02 0.00 65 1006.8
20201204155103 58 180 2.0 5.0 0.00 0.02 0.00 65 1006.8
20201204154601 58 180 1.0 4.0 0.00 0.02 0.00 65 1006.8
20201204154101 58 158 4.0 4.0 0.00 0.02 0.00 64 1006.8
20201204153558 58 135 0.0 0.0 0.00 0.02 0.00 64 1006.8
20201204153117 59 180 1.0 1.0 0.00 0.02 0.00 64 1006.8
20201204152600 59 135 0.0 0.0 0.00 0.02 0.00 64 1006.7
20201204152114 59 158 0.0 3.0 0.00 0.02 0.00 64 1006.8
20201204151609 59 158 0.0 0.0 0.00 0.02 0.00 64 1006.8
20201204151058 59 135 0.0 1.0 0.00 0.02 0.00 64 1006.8
20201204150559 60 203 1.0 3.0 0.00 0.02 0.00 64 1006.5
20201204150059 60 180 2.0 2.0 0.00 0.02 0.00 64 1006.5
20201204145609 59 180 0.0 1.0 0.00 0.02 0.00 64 1006.5
20201204145059 59 203 1.0 1.0 0.00 0.02 0.00 64 1006.4
20201204144559 60 158 0.0 0.0 0.00 0.02 0.00 63 1006.4
20201204144058 60 68 0.0 0.0 0.00 0.02 0.00 61 1006.5
20201204143558 60 180 0.0 2.0 0.00 0.02 0.00 61 1006.4
20201204143100 60 180 2.0 2.0 0.00 0.02 0.00 62 1006.5
20201204142559 60 113 0.0 1.0 0.00 0.02 0.00 61 1006.5
20201204142114 61 180 1.0 2.0 0.00 0.02 0.00 61 1006.5
20201204141558 61 135 0.0 0.0 0.00 0.02 0.00 60 1006.5
20201204141058 61 68 0.0 0.0 0.00 0.02 0.00 60 1006.4
20201204140559 61 45 0.0 0.0 0.00 0.02 0.00 60 1006.3
20201204140150 61 45 1.0 1.0 0.00 0.02 0.00 60 1006.3
20201204135558 61 45 0.0 2.0 0.00 0.02 0.00 60 1006.3
20201204135058 61 45 2.0 2.0 0.00 0.02 0.00 60 1006.3
20201204134605 61 90 3.0 3.0 0.00 0.02 0.00 61 1006.4
20201204134058 61 68 3.0 3.0 0.00 0.02 0.00 61 1006.6
20201204133558 62 135 1.0 1.0 0.00 0.02 0.00 60 1006.5
20201204133058 62 90 5.0 5.0 0.00 0.02 0.00 60 1006.6
20201204132600 62 68 0.0 1.0 0.00 0.02 0.00 61 1006.5
20201204132059 62 180 1.0 3.0 0.00 0.02 0.00 61 1006.6
20201204131559 62 90 2.0 2.0 0.00 0.02 0.00 60 1006.6
20201204131059 62 45 1.0 1.0 0.00 0.02 0.00 61 1006.7
20201204130558 62 68 1.0 2.0 0.00 0.02 0.00 61 1006.7
20201204130116 61 68 0.0 4.0 0.00 0.02 0.00 60 1006.7
20201204125559 61 45 4.0 4.0 0.00 0.02 0.00 61 1006.6
20201204125059 61 68 3.0 5.0 0.00 0.02 0.00 61 1006.7
20201204124600 61 90 2.0 6.0 0.00 0.02 0.00 59 1006.7
20201204124100 61 68 4.0 4.0 0.00 0.02 0.00 59 1006.7
20201204123600 61 45 4.0 4.0 0.00 0.02 0.00 59 1006.5
20201204123058 61 68 0.0 3.0 0.00 0.02 0.00 59 1006.6
20201204122558 62 45 3.0 6.0 0.00 0.02 0.00 59 1006.6
20201204122058 61 68 6.0 6.0 0.00 0.02 0.00 59 1006.6
20201204121558 62 68 2.0 3.0 0.00 0.02 0.00 59 1006.6
20201204121106 62 45 1.0 3.0 0.00 0.02 0.00 59 1006.7
20201204120612 62 68 3.0 3.0 0.00 0.02 0.00 59 1006.7
20201204120102 62 45 4.0 4.0 0.00 0.02 0.00 57 1006.8
20201204115559 62 45 4.0 4.0 0.00 0.04 0.00 56 1006.8
20201204115059 63 45 2.0 8.0 0.00 0.06 0.00 55 1006.9
20201204114558 63 293 3.0 3.0 0.00 0.06 0.00 52 1006.9
20201204114058 63 338 1.0 2.0 0.00 0.06 0.00 53 1007.0
20201204113558 63 180 2.0 4.0 0.00 0.08 0.00 53 1007.1
20201204113130 63 68 2.0 2.0 0.00 0.08 0.00 54 1007.1
20201204112600 62 248 1.0 6.0 0.00 0.08 0.00 54 1007.1
20201204112059 62 225 6.0 6.0 0.00 0.08 0.00 53 1007.2
20201204111558 62 225 5.0 6.0 0.00 0.08 0.00 53 1007.3
20201204111059 62 203 6.0 6.0 0.00 0.08 0.00 53 1007.3
20201204110559 62 248 2.0 8.0 0.00 0.08 0.00 54 1007.4
20201204110106 62 203 8.0 8.0 0.00 0.08 0.00 56 1007.5
20201204105558 62 180 2.0 2.0 0.00 0.08 0.00 57 1007.6
20201204105059 62 180 1.0 1.0 0.00 0.08 0.00 57 1007.7
20201204104558 61 203 0.0 0.0 0.00 0.08 0.00 57 1007.6
20201204104102 61 270 0.0 4.0 0.00 0.08 0.00 58 1007.7
20201204103558 61 180 3.0 7.0 0.00 0.08 0.00 58 1007.8
20201204103058 60 180 3.0 9.0 0.00 0.10 0.00 58 1007.8
20201204102600 60 225 9.0 13.0 0.00 0.10 0.00 58 1007.8
20201204102101 60 203 13.0 17.0 0.00 0.12 0.00 59 1007.8
20201204101558 60 225 17.0 17.0 0.00 0.14 0.00 60 1007.9
20201204101107 60 203 4.0 11.0 0.00 0.14 0.00 60 1008.0
20201204100600 59 270 7.0 7.0 0.00 0.14 0.00 60 1008.0
20201204100059 59 225 7.0 7.0 0.00 0.14 0.00 60 1008.0
20201204095558 59 225 6.0 9.0 0.00 0.14 0.00 60 1008.1
20201204095058 59 225 4.0 9.0 0.00 0.14 0.00 60 1008.3
20201204094558 59 225 6.0 6.0 0.00 0.14 0.00 61 1008.3
20201204094058 59 203 6.0 6.0 0.00 0.14 0.00 61 1008.4
20201204093604 59 203 5.0 8.0 0.00 0.14 0.00 61 1008.4
20201204093107 59 180 13.0 13.0 0.00 0.14 0.00 61 1008.5
20201204092600 58 225 8.0 8.0 0.00 0.14 0.00 61 1008.5
20201204092101 59 203 6.0 12.0 0.00 0.14 0.00 61 1008.5
20201204091602 59 225 6.0 13.0 0.00 0.14 0.00 60 1008.5
20201204091059 59 225 10.0 13.0 0.00 0.16 0.00 60 1008.4
20201204090558 58 270 10.0 10.0 0.00 0.16 0.00 60 1008.4
20201204090104 58 180 4.0 14.0 0.00 0.18 0.00 59 1008.4
20201204085558 58 203 14.0 14.0 0.00 0.20 0.00 59 1008.4
20201204085058 58 180 11.0 12.0 0.00 0.20 0.00 60 1008.3
20201204084558 58 203 5.0 7.0 0.00 0.26 0.00 60 1008.4
20201204084058 58 248 7.0 13.0 0.00 0.28 0.00 60 1008.4
20201204083559 58 225 10.0 12.0 0.00 0.28 0.00 61 1008.3
20201204083058 57 180 4.0 6.0 0.00 0.28 0.00 61 1008.3
20201204082602 57 203 6.0 9.0 0.00 0.28 0.00 61 1008.1
20201204082058 57 135 4.0 9.0 0.00 0.30 0.00 61 1008.4
20201204081558 57 180 8.0 11.0 0.00 0.30 0.00 61 1008.0
20201204081058 57 158 6.0 10.0 0.00 0.30 0.00 61 1008.1
20201204080602 57 248 10.0 10.0 0.00 0.32 0.00 61 1008.1
20201204080104 57 203 8.0 11.0 0.00 0.32 0.00 60 1008.3
20201204075601 57 225 6.0 11.0 0.00 0.34 0.00 60 1008.3
20201204075058 57 203 11.0 11.0 0.00 0.34 0.00 59 1008.1
20201204074600 57 225 13.0 13.0 0.00 0.36 0.00 60 1008.1
20201204074058 57 203 10.0 10.0 0.00 0.36 0.00 59 1008.3
20201204073603 56 203 10.0 10.0 0.00 0.38 0.00 60 1008.3
20201204073105 56 225 10.0 12.0 0.00 0.40 0.00 60 1008.3
20201204072558 56 203 12.0 12.0 0.00 0.42 0.00 59 1008.3
20201204072058 56 225 9.0 9.0 0.00 0.42 0.00 60 1008.3
20201204071559 56 203 9.0 11.0 0.00 0.42 0.00 60 1008.0
20201204071058 56 180 11.0 11.0 0.00 0.44 0.00 60 1008.0
20201204070558 56 203 10.0 10.0 0.00 0.55 0.00 60 1008.0
20201204070100 56 180 8.0 8.0 0.00 0.61 0.00 61 1007.8
20201204065558 55 203 5.0 12.0 0.00 0.63 0.00 61 1007.8
20201204065058 56 135 3.0 9.0 0.00 0.67 0.00 61 1007.8
20201204064600 56 203 6.0 10.0 0.00 0.67 0.00 60 1007.6
20201204064059 56 203 10.0 12.0 0.00 0.67 0.00 60 1007.7
20201204063558 56 225 12.0 17.0 0.00 0.69 0.00 60 1007.8
20201204063059 56 225 8.0 10.0 0.00 0.71 0.00 59 1007.7
20201204062558 56 203 8.0 15.0 0.00 0.71 0.00 59 1007.7
20201204062059 56 203 14.0 14.0 0.00 0.77 0.00 60 1007.7
20201204061558 55 225 10.0 11.0 0.00 0.79 0.00 59 1007.7
20201204061058 55 225 11.0 17.0 0.00 0.89 0.00 60 1007.7
20201204060600 55 225 17.0 17.0 0.00 0.91 0.00 60 1007.6
20201204060058 55 180 15.0 15.0 0.00 0.91 0.00 60 1007.7
20201204055600 55 203 11.0 11.0 0.00 0.91 0.00 60 1007.8
20201204055058 55 180 8.0 20.0 0.00 0.91 0.00 60 1007.7
20201204054558 55 225 20.0 20.0 0.00 0.93 0.00 60 1007.7
20201204054102 55 203 11.0 12.0 0.00 0.93 0.00 60 1007.6
20201204053558 55 203 12.0 18.0 0.00 0.93 0.00 60 1007.6
20201204053102 55 203 15.0 15.0 0.00 0.93 0.00 61 1007.5
20201204052559 55 203 14.0 14.0 0.00 0.93 0.00 61 1007.5
20201204052058 55 225 17.0 17.0 0.00 0.93 0.00 61 1007.4
20201204051558 55 180 10.0 14.0 0.00 0.93 0.00 62 1007.4
20201204051058 55 180 11.0 13.0 0.00 0.93 0.00 62 1007.3
20201204050558 55 180 12.0 13.0 0.00 0.93 0.00 62 1007.4
20201204050058 55 203 13.0 14.0 0.00 0.93 0.00 62 1007.3
20201204045558 55 203 14.0 17.0 0.00 0.93 0.00 62 1007.5
20201204045059 55 203 17.0 17.0 0.00 0.93 0.00 62 1007.6
20201204044600 55 203 10.0 15.0 0.00 0.93 0.00 62 1007.3
20201204044058 55 180 15.0 19.0 0.00 0.93 0.00 62 1007.3
20201204043558 55 225 19.0 19.0 0.00 0.93 0.00 62 1007.2
20201204043103 55 225 14.0 17.0 0.00 0.93 0.00 62 1007.3
20201204042558 55 225 12.0 20.0 0.00 0.93 0.00 62 1007.1
20201204042104 55 225 13.0 14.0 0.00 0.93 0.00 62 1007.2
20201204041558 55 180 14.0 14.0 0.00 0.93 0.00 62 1007.2
20201204041058 55 180 13.0 14.0 0.00 0.93 0.00 63 1007.1
20201204040558 55 180 11.0 21.0 0.00 0.93 0.00 63 1007.2
20201204040058 55 180 21.0 21.0 0.00 0.93 0.00 63 1007.0
20201204035602 55 203 17.0 17.0 0.00 0.93 0.00 63 1006.9
20201204035058 55 203 14.0 17.0 0.00 0.93 0.00 63 1006.9
20201204034558 55 180 17.0 21.0 0.00 0.93 0.00 64 1006.8
20201204034058 55 180 21.0 21.0 0.00 0.93 0.00 64 1006.7
20201204033558 55 225 21.0 21.0 0.00 0.93 0.00 64 1006.7
20201204033058 55 270 19.0 19.0 0.00 0.93 0.00 64 1006.7
20201204032558 55 203 14.0 17.0 0.00 0.93 0.00 65 1006.8
20201204032059 55 225 12.0 12.0 0.00 0.93 0.00 67 1006.8
20201204031559 55 225 12.0 12.0 0.00 0.93 0.00 67 1006.8
20201204031100 55 203 11.0 14.0 0.00 0.93 0.00 67 1006.9
20201204030558 55 203 14.0 16.0 0.00 0.93 0.00 68 1006.9
20201204030058 54 203 16.0 16.0 0.00 0.93 0.00 68 1006.9
20201204025603 54 225 16.0 16.0 0.00 0.93 0.00 68 1006.8
20201204025101 54 225 15.0 15.0 0.00 0.93 0.00 68 1006.9
20201204024558 54 180 13.0 13.0 0.00 0.93 0.00 68 1006.8
20201204024058 55 203 12.0 18.0 0.00 0.93 0.00 68 1006.8
20201204023558 55 225 9.0 19.0 0.00 0.93 0.00 68 1006.7
20201204023058 55 203 19.0 19.0 0.00 0.93 0.00 68 1006.7
20201204022558 55 203 17.0 17.0 0.00 0.93 0.00 69 1006.7
20201204022100 55 180 14.0 14.0 0.00 0.93 0.00 68 1006.7
20201204021609 55 203 15.0 15.0 0.00 0.93 0.00 68 1006.8
20201204021058 54 225 10.0 14.0 0.00 0.93 0.00 68 1006.8
20201204020558 54 180 14.0 17.0 0.00 0.93 0.00 68 1006.9
20201204020058 54 180 17.0 17.0 0.00 0.93 0.00 68 1006.9
20201204015600 54 180 15.0 15.0 0.00 0.93 0.00 68 1007.0
20201204015105 55 225 13.0 13.0 0.00 0.93 0.00 68 1007.1
20201204014612 55 225 12.0 14.0 0.00 0.93 0.00 68 1007.1
20201204014104 55 180 11.0 15.0 0.00 0.93 0.00 69 1006.9
20201204013558 55 203 16.0 18.0 0.00 0.93 0.00 69 1006.8
20201204013059 55 225 18.0 18.0 0.00 0.93 0.00 69 1006.8
20201204012602 55 203 13.0 15.0 0.00 0.93 0.00 69 1006.9
20201204012058 55 203 15.0 15.0 0.00 0.93 0.00 69 1006.8
20201204011603 54 203 14.0 17.0 0.00 0.93 0.00 70 1006.7
20201204011105 55 203 14.0 16.0 0.00 0.93 0.00 69 1006.8
20201204010558 55 225 17.0 17.0 0.00 0.93 0.00 70 1006.7
20201204010058 54 203 12.0 15.0 0.00 0.93 0.00 70 1006.6
20201204005601 54 203 15.0 16.0 0.00 0.93 0.00 71 1006.7
20201204005059 55 225 8.0 12.0 0.00 0.93 0.00 71 1006.8
20201204004558 55 225 9.0 14.0 0.00 0.93 0.00 71 1006.7
20201204004102 55 203 14.0 14.0 0.00 0.93 0.00 71 1006.7
20201204003559 55 225 12.0 15.0 0.00 0.93 0.00 72 1006.7
20201204003101 55 203 12.0 17.0 0.00 0.93 0.00 72 1006.8
20201204002559 54 158 17.0 17.0 0.00 0.93 0.00 72 1006.8
20201204002100 54 203 15.0 15.0 0.00 0.93 0.00 73 1006.8
20201204001558 54 203 14.0 14.0 0.00 0.93 0.00 73 1006.8
20201204001103 54 203 14.0 16.0 0.00 0.93 0.00 73 1006.9
20201204000559 55 180 16.0 16.0 0.00 0.93 0.00 74 1006.9
20201204000115 55 225 14.0 14.0 0.00 0.93 0.00 74 1006.8
20201203235558 55 180 10.0 10.0 0.00 0.93 0.00 74 1006.8
20201203235059 54 180 10.0 11.0 0.00 0.93 0.00 75 1006.9
20201203234558 54 203 11.0 11.0 0.00 0.93 0.00 75 1006.9
20201203234058 54 225 9.0 10.0 0.00 0.93 0.00 75 1006.9
20201203233558 54 203 12.0 12.0 0.00 0.93 0.00 75 1007.0
20201203233058 54 203 11.0 14.0 0.00 0.93 0.00 75 1006.9
20201203232558 54 203 14.0 14.0 0.00 0.93 0.00 76 1006.8
20201203232100 54 225 12.0 17.0 0.00 0.93 0.00 77 1007.0
20201203231559 54 203 17.0 18.0 0.00 0.93 0.00 77 1007.0
20201203231100 54 180 18.0 18.0 0.00 0.93 0.00 78 1007.1
20201203230559 54 203 14.0 14.0 0.00 0.93 0.00 78 1007.2
20201203230101 54 180 12.0 18.0 0.00 0.93 0.00 78 1007.2
20201203225558 54 203 18.0 20.0 0.00 0.93 0.00 77 1007.0
20201203225159 54 203 20.0 20.0 0.00 0.93 0.00 77 1007.0
20201203224558 53 203 16.0 16.0 0.00 0.93 0.00 79 1006.9
20201203224120 53 225 16.0 18.0 0.00 0.93 0.00 79 1006.9
20201203223558 53 203 18.0 18.0 0.00 0.93 0.00 80 1006.9
20201203223100 53 203 10.0 14.0 0.00 0.93 0.00 80 1006.9
20201203222601 53 203 14.0 14.0 0.00 0.93 0.00 79 1007.1
20201203222059 53 203 12.0 12.0 0.00 0.93 0.00 79 1007.0
20201203221558 53 180 10.0 10.0 0.00 0.93 0.00 79 1007.0
20201203221058 53 248 7.0 14.0 0.00 0.93 0.00 79 1006.9
20201203220601 53 203 12.0 12.0 0.00 0.93 0.00 79 1006.8
20201203220058 53 203 8.0 10.0 0.00 0.93 0.00 79 1006.9
20201203215559 53 203 9.0 13.0 0.00 0.93 0.00 79 1006.9
20201203215111 53 203 7.0 14.0 0.00 0.93 0.00 79 1006.9
20201203214559 53 203 14.0 14.0 0.00 0.93 0.00 79 1007.2
20201203210052 54 225 5.0 5.0 0.00 0.93 0.00 76 1007.1
20201203205550 54 203 5.0 6.0 0.00 0.93 0.00 76 1007.1
20201203205052 55 203 6.0 8.0 0.00 0.93 0.00 75 1006.9
20201203204553 54 203 6.0 6.0 0.00 0.93 0.00 75 1006.8
20201203204051 54 225 6.0 6.0 0.00 0.93 0.00 75 1007.0
20201203203553 54 225 6.0 7.0 0.00 0.93 0.00 75 1006.9
20201203203054 54 180 4.0 10.0 0.00 0.93 0.00 75 1007.0
20201203202554 54 180 10.0 10.0 0.00 0.93 0.00 75 1006.9
20201203202050 54 203 8.0 10.0 0.00 0.93 0.00 76 1006.9
20201203201552 54 203 10.0 11.0 0.00 0.93 0.00 76 1006.9
20201203201050 53 180 5.0 5.0 0.00 0.93 0.00 76 1006.9
20201203200549 53 180 7.0 11.0 0.00 0.93 0.00 76 1006.9
20201203200054 53 203 5.0 10.0 0.00 0.93 0.00 76 1007.0
20201203195552 53 180 10.0 10.0 0.00 0.93 0.00 76 1007.0
20201203195050 53 180 8.0 10.0 0.00 0.93 0.00 76 1007.1
20201203194550 53 180 6.0 13.0 0.00 0.93 0.00 76 1006.9
20201203194054 53 180 13.0 13.0 0.00 0.93 0.00 76 1006.9
20201203193551 53 180 9.0 9.0 0.00 0.93 0.00 77 1006.9
20201203193050 53 203 8.0 12.0 0.00 0.93 0.00 77 1006.8
20201203192552 53 158 10.0 15.0 0.00 0.93 0.00 77 1006.7
20201203192050 53 180 7.0 9.0 0.00 0.93 0.00 78 1006.7
20201203191551 53 158 8.0 8.0 0.00 0.93 0.00 79 1006.7
20201203191050 53 203 7.0 11.0 0.00 0.93 0.00 79 1006.9
20201203190550 53 225 7.0 8.0 0.00 0.93 0.00 79 1006.9
20201203190105 53 225 8.0 8.0 0.00 0.93 0.00 79 1006.8
20201203185552 52 225 3.0 3.0 0.02 0.93 0.00 79 1006.7
20201203185050 53 180 2.0 4.0 0.02 0.93 0.00 79 1006.7
20201203184550 53 180 4.0 6.0 0.02 0.93 0.00 79 1006.7
20201203184050 53 180 3.0 5.0 0.02 0.93 0.00 79 1006.6
20201203183550 53 180 2.0 5.0 0.02 0.93 0.00 78 1006.6
20201203183050 53 180 4.0 4.0 0.02 0.93 0.00 78 1006.7
20201203182550 53 203 4.0 4.0 0.02 0.93 0.00 77 1006.6
20201203182050 53 68 6.0 6.0 0.02 0.93 0.00 76 1006.8
20201203181556 53 45 0.0 0.0 0.02 0.93 0.00 77 1006.7
20201203181050 52 315 0.0 2.0 0.02 0.93 0.00 77 1006.5
20201203180550 53 203 2.0 8.0 0.02 0.93 0.00 77 1006.6
20201203180050 53 203 6.0 10.0 0.02 0.93 0.00 76 1006.4
20201203175551 53 158 10.0 11.0 0.00 0.91 0.00 76 1006.5
20201203175050 54 203 6.0 10.0 0.00 0.91 0.00 73 1006.6
20201203174550 53 180 6.0 7.0 0.00 0.91 0.00 73 1006.5
20201203174050 53 225 7.0 10.0 0.00 0.91 0.00 73 1006.3
20201203173550 54 203 10.0 14.0 0.00 0.91 0.00 73 1006.3
20201203173050 54 180 11.0 11.0 0.00 0.91 0.00 73 1006.3
20201203172550 54 180 7.0 12.0 0.00 0.91 0.00 73 1006.3
20201203172050 54 203 11.0 11.0 0.00 0.91 0.00 73 1006.2
20201203171551 53 203 9.0 9.0 0.00 0.91 0.00 73 1006.2
20201203171050 53 203 9.0 11.0 0.00 0.91 0.00 73 1006.3
20201203170550 53 203 8.0 12.0 0.00 0.91 0.00 73 1006.2
20201203170110 53 180 10.0 11.0 0.00 0.91 0.00 73 1006.2
20201203165550 53 203 8.0 8.0 0.00 0.91 0.00 73 1006.2
20201203165053 53 180 7.0 10.0 0.00 0.91 0.00 73 1006.2
20201203164550 53 225 10.0 11.0 0.00 0.91 0.00 73 1006.0
20201203164051 53 203 11.0 11.0 0.00 0.91 0.00 72 1005.8
20201203163555 53 225 11.0 11.0 0.00 0.91 0.00 72 1005.9